Time,TemperatureF,DewpointF,PressureIn,WindDirection,WindDirectionDegrees,WindSpeedMPH,WindSpeedGustMPH,Humidity,HourlyPrecipIn,Conditions,Clouds,dailyrainin,SoftwareType,DateUTC
2013-01-22 00:12:00,21.3,19.0,29.66,SW,217,0.0,-999.0,90,-99.99,,,0.00,weatherlink.com 1.10,2013-01-22 05:12:00,
2013-01-22 00:27:00,21.2,19.0,29.66,SW,217,0.0,-999.0,89,-99.99,,,0.00,weatherlink.com 1.10,2013-01-22 05:27:00,
2013-01-22 00:42:00,21.2,19.0,29.66,SW,217,0.0,-999.0,89,-99.99,,,0.00,weatherlink.com 1.10,2013-01-22 05:42:00,
2013-01-22 00:57:00,21.2,19.0,29.64,SW,218,0.0,-999.0,89,-99.99,,,0.00,weatherlink.com 1.10,2013-01-22 05:57:00,
2013-01-22 01:13:00,21.2,19.0,29.65,West,281,0.0,-999.0,89,-99.99,,,0.00,weatherlink.com 1.10,2013-01-22 06:13:00,
2013-01-22 01:27:00,21.3,19.0,29.65,WNW,294,0.0,-999.0,89,-99.99,,,0.00,weatherlink.com 1.10,2013-01-22 06:27:00,
2013-01-22 01:43:00,21.5,19.0,29.66,WNW,300,0.0,-999.0,88,-99.99,,,0.00,weatherlink.com 1.10,2013-01-22 06:43:00,
2013-01-22 01:57:00,21.7,18.0,29.66,NW,308,0.0,-999.0,87,-99.99,,,0.00,weatherlink.com 1.10,2013-01-22 06:57:00,
2013-01-22 02:13:00,21.7,18.0,29.66,North,5,0.0,-999.0,86,-99.99,,,0.00,weatherlink.com 1.10,2013-01-22 07:13:00,
2013-01-22 02:28:00,21.7,18.0,29.65,NW,323,0.0,-999.0,85,-99.99,,,0.00,weatherlink.com 1.10,2013-01-22 07:28:00,
2013-01-22 02:43:00,21.7,18.0,29.65,NNW,346,0.0,-999.0,85,-99.99,,,0.00,weatherlink.com 1.10,2013-01-22 07:43:00,
2013-01-22 02:58:00,21.6,18.0,29.64,NNW,343,0.0,-999.0,84,-99.99,,,0.00,weatherlink.com 1.10,2013-01-22 07:58:00,
2013-01-22 03:13:00,21.4,17.0,29.64,NW,307,1.0,-999.0,84,-99.99,,,0.00,weatherlink.com 1.10,2013-01-22 08:13:00,
2013-01-22 03:28:00,21.3,17.0,29.64,NW,307,0.0,-999.0,84,-99.99,,,0.00,weatherlink.com 1.10,2013-01-22 08:28:00,
2013-01-22 03:43:00,21.3,17.0,29.64,WNW,303,0.0,-999.0,84,-99.99,,,0.00,weatherlink.com 1.10,2013-01-22 08:43:00,
2013-01-22 03:58:00,21.1,17.0,29.63,NNW,332,0.0,-999.0,83,-99.99,,,0.00,weatherlink.com 1.10,2013-01-22 08:58:00,
2013-01-22 04:13:00,20.8,16.0,29.63,WNW,302,0.0,-999.0,83,-99.99,,,0.00,weatherlink.com 1.10,2013-01-22 09:13:00,
2013-01-22 04:28:00,20.7,16.0,29.63,NNW,336,0.0,-999.0,83,-99.99,,,0.00,weatherlink.com 1.10,2013-01-22 09:28:00,
2013-01-22 04:43:00,20.4,16.0,29.63,NW,322,0.0,-999.0,84,-99.99,,,0.00,weatherlink.com 1.10,2013-01-22 09:43:00,
2013-01-22 04:58:00,19.9,16.0,29.63,NW,308,0.0,-999.0,84,-99.99,,,0.00,weatherlink.com 1.10,2013-01-22 09:58:00,
2013-01-22 05:13:00,19.4,16.0,29.63,NNW,336,0.0,-999.0,85,-99.99,,,0.00,weatherlink.com 1.10,2013-01-22 10:13:00,
2013-01-22 05:28:00,19.0,15.0,29.63,NW,312,0.0,-999.0,85,-99.99,,,0.00,weatherlink.com 1.10,2013-01-22 10:28:00,
2013-01-22 05:43:00,18.6,15.0,29.64,NW,313,0.0,-999.0,86,-99.99,,,0.00,weatherlink.com 1.10,2013-01-22 10:43:00,
2013-01-22 05:58:00,18.2,15.0,29.64,NW,309,0.0,-999.0,86,-99.99,,,0.00,weatherlink.com 1.10,2013-01-22 10:58:00,
2013-01-22 06:13:00,17.9,15.0,29.64,NW,309,0.0,-999.0,87,-99.99,,,0.00,weatherlink.com 1.10,2013-01-22 11:13:00,
2013-01-22 06:28:00,17.6,14.0,29.65,NW,308,0.0,-999.0,87,-99.99,,,0.00,weatherlink.com 1.10,2013-01-22 11:28:00,
2013-01-22 06:43:00,17.3,14.0,29.65,NW,311,0.0,-999.0,87,-99.99,,,0.00,weatherlink.com 1.10,2013-01-22 11:43:00,
2013-01-22 06:58:00,17.0,14.0,29.66,NW,312,0.0,-999.0,87,-99.99,,,0.00,weatherlink.com 1.10,2013-01-22 11:58:00,
2013-01-22 07:13:00,17.0,14.0,29.66,NW,323,0.0,-999.0,87,-99.99,,,0.00,weatherlink.com 1.10,2013-01-22 12:13:00,
2013-01-22 07:28:00,17.3,13.0,29.67,NNE,22,0.0,-999.0,83,-99.99,,,0.00,weatherlink.com 1.10,2013-01-22 12:28:00,
2013-01-22 07:43:00,17.1,13.0,29.68,NNE,13,0.0,-999.0,82,-99.99,,,0.00,weatherlink.com 1.10,2013-01-22 12:43:00,
2013-01-22 07:58:00,17.0,12.0,29.68,NNE,13,0.0,-999.0,79,-99.99,,,0.00,weatherlink.com 1.10,2013-01-22 12:58:00,
2013-01-22 08:13:00,17.3,11.0,29.69,WNW,288,2.0,-999.0,75,-99.99,,,0.00,weatherlink.com 1.10,2013-01-22 13:13:00,
2013-01-22 08:28:00,17.1,10.0,29.69,North,355,0.0,-999.0,75,-99.99,,,0.00,weatherlink.com 1.10,2013-01-22 13:28:00,
2013-01-22 08:43:00,17.5,11.0,29.70,NNE,24,1.0,-999.0,76,-99.99,,,0.00,weatherlink.com 1.10,2013-01-22 13:43:00,
2013-01-22 08:58:00,18.7,12.0,29.70,WNW,291,1.0,-999.0,76,-99.99,,,0.00,weatherlink.com 1.10,2013-01-22 13:58:00,
2013-01-22 09:13:00,20.0,13.0,29.71,NE,42,2.0,-999.0,75,-99.99,,,0.00,weatherlink.com 1.10,2013-01-22 14:13:00,
2013-01-22 09:28:00,20.9,14.0,29.71,West,268,1.0,-999.0,73,-99.99,,,0.00,weatherlink.com 1.10,2013-01-22 14:28:00,
2013-01-22 09:43:00,20.8,13.0,29.71,NW,310,2.0,-999.0,73,-99.99,,,0.00,weatherlink.com 1.10,2013-01-22 14:43:00,
2013-01-22 09:58:00,21.5,14.0,29.71,NNE,30,2.0,-999.0,73,-99.99,,,0.00,weatherlink.com 1.10,2013-01-22 14:58:00,
2013-01-22 10:13:00,22.8,14.0,29.71,NNE,28,4.0,-999.0,68,-99.99,,,0.00,weatherlink.com 1.10,2013-01-22 15:13:00,
2013-01-22 10:28:00,24.0,12.0,29.72,West,276,2.0,-999.0,60,-99.99,,,0.00,weatherlink.com 1.10,2013-01-22 15:28:00,
2013-01-22 10:43:00,24.9,9.0,29.71,WNW,296,3.0,-999.0,52,-99.99,,,0.00,weatherlink.com 1.10,2013-01-22 15:43:00,
2013-01-22 10:58:00,24.7,8.0,29.72,NNW,346,4.0,-999.0,50,-99.99,,,0.00,weatherlink.com 1.10,2013-01-22 15:58:00,
2013-01-22 11:13:00,23.8,8.0,29.71,WNW,303,1.0,-999.0,50,-99.99,,,0.00,weatherlink.com 1.10,2013-01-22 16:13:00,
2013-01-22 11:28:00,24.1,7.0,29.71,WNW,294,1.0,-999.0,48,-99.99,,,0.00,weatherlink.com 1.10,2013-01-22 16:28:00,
2013-01-22 11:43:00,23.3,6.0,29.71,WSW,248,2.0,-999.0,47,-99.99,,,0.00,weatherlink.com 1.10,2013-01-22 16:43:00,
2013-01-22 11:58:00,24.7,3.0,29.70,NNE,22,4.0,-999.0,40,-99.99,,,0.00,weatherlink.com 1.10,2013-01-22 16:58:00,
2013-01-22 12:13:00,25.1,3.0,29.71,NNW,338,0.0,-999.0,39,-99.99,,,0.00,weatherlink.com 1.10,2013-01-22 17:13:00,
2013-01-22 12:28:00,25.1,3.0,29.70,NW,317,3.0,-999.0,39,-99.99,,,0.00,weatherlink.com 1.10,2013-01-22 17:28:00,
2013-01-22 12:43:00,24.2,3.0,29.70,West,266,3.0,-999.0,40,-99.99,,,0.00,weatherlink.com 1.10,2013-01-22 17:43:00,
2013-01-22 12:58:00,25.6,3.0,29.70,NNE,28,8.0,-999.0,38,-99.99,,,0.00,weatherlink.com 1.10,2013-01-22 17:58:00,
2013-01-22 13:13:00,26.0,4.0,29.70,WSW,252,0.0,-999.0,39,-99.99,,,0.00,weatherlink.com 1.10,2013-01-22 18:13:00,
2013-01-22 13:28:00,24.9,2.0,29.71,NW,315,3.0,-999.0,38,-99.99,,,0.00,weatherlink.com 1.10,2013-01-22 18:28:00,
2013-01-22 13:43:00,23.5,2.0,29.71,WNW,303,2.0,-999.0,39,-99.99,,,0.00,weatherlink.com 1.10,2013-01-22 18:43:00,
2013-01-22 13:58:00,24.4,1.0,29.72,SSW,211,1.0,-999.0,37,-99.99,,,0.00,weatherlink.com 1.10,2013-01-22 18:58:00,
2013-01-22 14:13:00,25.5,2.0,29.72,NW,315,1.0,-999.0,37,-99.99,,,0.00,weatherlink.com 1.10,2013-01-22 19:13:00,
2013-01-22 14:28:00,25.0,2.0,29.73,West,259,0.0,-999.0,37,-99.99,,,0.00,weatherlink.com 1.10,2013-01-22 19:28:00,
2013-01-22 14:43:00,24.9,2.0,29.74,WSW,248,0.0,-999.0,37,-99.99,,,0.00,weatherlink.com 1.10,2013-01-22 19:43:00,
2013-01-22 14:58:00,23.7,1.0,29.75,West,265,0.0,-999.0,37,-99.99,,,0.00,weatherlink.com 1.10,2013-01-22 19:58:00,
2013-01-22 15:13:00,23.5,-1.0,29.75,West,271,2.0,-999.0,35,-99.99,,,0.00,weatherlink.com 1.10,2013-01-22 20:13:00,
2013-01-22 15:28:00,23.1,0.0,29.76,WNW,296,4.0,-999.0,37,-99.99,,,0.00,weatherlink.com 1.10,2013-01-22 20:28:00,
2013-01-22 15:43:00,22.5,-1.0,29.77,NNW,340,0.0,-999.0,35,-99.99,,,0.00,weatherlink.com 1.10,2013-01-22 20:43:00,
2013-01-22 15:58:00,22.0,-3.0,29.77,NW,304,1.0,-999.0,33,-99.99,,,0.00,weatherlink.com 1.10,2013-01-22 20:58:00,
2013-01-22 16:13:00,21.3,-4.0,29.78,NE,49,2.0,-999.0,32,-99.99,,,0.00,weatherlink.com 1.10,2013-01-22 21:13:00,
2013-01-22 16:28:00,20.8,-3.0,29.79,NW,312,3.0,-999.0,35,-99.99,,,0.00,weatherlink.com 1.10,2013-01-22 21:28:00,
2013-01-22 16:43:00,20.4,-3.0,29.80,WNW,290,0.0,-999.0,36,-99.99,,,0.00,weatherlink.com 1.10,2013-01-22 21:43:00,
2013-01-22 16:58:00,20.2,-1.0,29.80,ENE,57,0.0,-999.0,40,-99.99,,,0.00,weatherlink.com 1.10,2013-01-22 21:58:00,
2013-01-22 17:13:00,19.8,-1.0,29.82,NW,325,3.0,-999.0,41,-99.99,,,0.00,weatherlink.com 1.10,2013-01-22 22:13:00,
2013-01-22 17:28:00,19.3,2.0,29.82,North,5,0.0,-999.0,46,-99.99,,,0.00,weatherlink.com 1.10,2013-01-22 22:28:00,
2013-01-22 17:43:00,18.8,2.0,29.84,NNE,17,1.0,-999.0,48,-99.99,,,0.00,weatherlink.com 1.10,2013-01-22 22:43:00,
2013-01-22 17:58:00,18.4,4.0,29.84,WNW,297,4.0,-999.0,54,-99.99,,,0.00,weatherlink.com 1.10,2013-01-22 22:58:00,
2013-01-22 18:13:00,17.9,6.0,29.85,WNW,294,0.0,-999.0,60,-99.99,,,0.00,weatherlink.com 1.10,2013-01-22 23:13:00,
2013-01-22 18:28:00,17.5,7.0,29.86,NW,315,0.0,-999.0,64,-99.99,,,0.00,weatherlink.com 1.10,2013-01-22 23:28:00,
2013-01-22 18:43:00,17.3,8.0,29.87,NNW,336,0.0,-999.0,68,-99.99,,,0.00,weatherlink.com 1.10,2013-01-22 23:43:00,
2013-01-22 18:58:00,16.7,11.0,29.87,WNW,295,0.0,-999.0,79,-99.99,,,0.00,weatherlink.com 1.10,2013-01-22 23:58:00,
2013-01-22 19:13:00,16.3,10.0,29.88,West,275,0.0,-999.0,77,-99.99,,,0.00,weatherlink.com 1.10,2013-01-23 00:13:00,
2013-01-22 19:28:00,16.3,9.0,29.88,NW,305,0.0,-999.0,74,-99.99,,,0.00,weatherlink.com 1.10,2013-01-23 00:28:00,
2013-01-22 19:43:00,16.1,9.0,29.89,WNW,302,0.0,-999.0,72,-99.99,,,0.00,weatherlink.com 1.10,2013-01-23 00:43:00,
2013-01-22 19:58:00,16.1,10.0,29.90,NE,48,0.0,-999.0,75,-99.99,,,0.00,weatherlink.com 1.10,2013-01-23 00:58:00,
2013-01-22 20:13:00,15.5,9.0,29.90,WNW,300,0.0,-999.0,75,-99.99,,,0.00,weatherlink.com 1.10,2013-01-23 01:13:00,
2013-01-22 20:28:00,15.0,8.0,29.90,NW,312,0.0,-999.0,74,-99.99,,,0.00,weatherlink.com 1.10,2013-01-23 01:28:00,
2013-01-22 20:43:00,14.6,7.0,29.91,NNW,339,0.0,-999.0,73,-99.99,,,0.00,weatherlink.com 1.10,2013-01-23 01:43:00,
2013-01-22 20:58:00,14.4,7.0,29.91,NW,317,0.0,-999.0,71,-99.99,,,0.00,weatherlink.com 1.10,2013-01-23 01:58:00,
2013-01-22 21:13:00,14.1,6.0,29.91,NNW,327,0.0,-999.0,69,-99.99,,,0.00,weatherlink.com 1.10,2013-01-23 02:13:00,
2013-01-22 21:28:00,13.7,5.0,29.91,NW,306,0.0,-999.0,68,-99.99,,,0.00,weatherlink.com 1.10,2013-01-23 02:28:00,
2013-01-22 21:43:00,13.2,4.0,29.91,North,355,2.0,-999.0,67,-99.99,,,0.00,weatherlink.com 1.10,2013-01-23 02:43:00,
2013-01-22 21:58:00,13.0,4.0,29.92,NW,318,0.0,-999.0,66,-99.99,,,0.00,weatherlink.com 1.10,2013-01-23 02:58:00,
2013-01-22 22:13:00,13.0,3.0,29.93,NW,325,0.0,-999.0,64,-99.99,,,0.00,weatherlink.com 1.10,2013-01-23 03:13:00,
2013-01-22 22:28:00,12.9,2.0,29.93,WNW,299,1.0,-999.0,62,-99.99,,,0.00,weatherlink.com 1.10,2013-01-23 03:28:00,
2013-01-22 22:43:00,12.3,2.0,29.93,NNW,327,0.0,-999.0,63,-99.99,,,0.00,weatherlink.com 1.10,2013-01-23 03:43:00,
2013-01-22 22:58:00,12.1,2.0,29.94,NW,304,0.0,-999.0,63,-99.99,,,0.00,weatherlink.com 1.10,2013-01-23 03:58:00,
2013-01-22 23:13:00,11.6,2.0,29.94,NW,304,0.0,-999.0,66,-99.99,,,0.00,weatherlink.com 1.10,2013-01-23 04:13:00,
2013-01-22 23:28:00,11.3,1.0,29.94,WNW,302,0.0,-999.0,64,-99.99,,,0.00,weatherlink.com 1.10,2013-01-23 04:28:00,
2013-01-22 23:43:00,11.3,1.0,29.94,WNW,300,0.0,-999.0,63,-99.99,,,0.00,weatherlink.com 1.10,2013-01-23 04:43:00,
2013-01-22 23:58:00,10.8,0.0,29.93,WNW,282,3.0,-999.0,63,-99.99,,,0.00,weatherlink.com 1.10,2013-01-23 04:58:00,